www.pogodaiklimat.ru

Погода и климат >> Архив погоды >> Малайзия >> Langkawi


ПОГОДА в Langkawi

  • Прогноз погоды в Langkawi
  • Монитор погоды в Langkawi
  • Климат города

АРХИВ ПОГОДЫ в Langkawi

Время (UTC), дата Ветер
(напр.,м/с)
 
Видим.   Явления Облачность Т
(С)
Тd
(С)
f
(%)
Тe
(С)
Тes
(С)
Комфортность P
(гПа)
Po
(гПа)
Тmin
(С)
Tmax
(С)
R
(мм)
R24
(мм)
S
(см)
06 8.08 З 3 14 км мгла 9/3 660 м
[Cu med, cong Ac lent Ci sp]
+32.2 +25.9 69 +47 +54 опасность
перегрева
1007.7 1006.9
12 8.08 З 4 13 км мгла 9/3 750 м
[Sc Ac lent Ci sp]
+29.6 +24.5 74 +42 +42 опасность
перегрева
1008.1 1007.3 +32.7
18 8.08 З 3 12 км мгла 9/3 720 м
[Sc Ac lent Ci sp]
+29.2 +25.2 79 +42 +42 опасность
перегрева
1008.9 1008.1
00 9.08 С 1 10 км слабый ливневой дождь, в посл. час гроза 9/5 300 м
[Sc Ac As Cs]
+25.2 +23.6 91 +34 +34 очень
душно
1009.6 1008.8 +25.1 0.8
06 9.08 ЮЗ 3 16 км {дождь} 9/4 600 м
[Cu med, cong Ac lent Ci sp]
+28.9 +24.1 75 +40 +46 очень
душно
1009.4 1008.6 0.0
12 9.08 штиль 0 15 км 9/4 660 м
[Cu med, cong Ac lent Ci sp]
+28.6 +24.4 78 +40 +40 очень
душно
1009.2 1008.4 +29.9
18 9.08 СВ 1 10 км слабый дождь 10/5 300 м
[Sc As trans Cs]
+25.4 +24.0 92 +35 +35 очень
душно
1010.4 1009.6 6
00 10.08 В 2 10 км слабый ливневой дождь, в посл. час гроза 9/4 300 м
[Sc As trans Cs]
+25.8 +23.6 88 +35 +35 очень
душно
1010.2 1009.4 +25.1 11
06 10.08 Ю 3 15 км мгла {дождь} 9/4 500 м
[Cb cap Ac lent Ci sp]
+28.7 +24.1 76 +40 +47 очень
душно
1009.9 1009.1 0.0
12 10.08 В 1 15 км мгла 9/3 750 м
[Sc Ac trans Ci sp]
+28.9 +24.5 77 +41 +41 опасность
перегрева
1009.2 1008.4 +31.1
18 10.08 СВ 1 14 км мгла 9/3 750 м
[Sc Ac lent Ci sp]
+26.7 +24.4 87 +37 +37 очень
душно
1010.3 1009.5
00 11.08 С 1 14 км мгла 9/3 500 м
[Cb cap Ac trans Ci sp]
+25.4 +24.0 92 +35 +35 очень
душно
1009.6 1008.8 +25.4 0.0
06 11.08 З 2 14 км мгла 9/4 660 м
[Cu hum Ac trans Ci sp]
+31.2 +26.0 74 +47 +55 опасность
перегрева
1009.5 1008.7
12 11.08 З 1 14 км мгла 9/3 750 м
[Sc Ac lent Ci fib]
+29.5 +25.6 80 +44 +44 опасность
перегрева
1007.9 1007.1 +33.0
18 11.08 В 2 12 км мгла 9/3 750 м
[Sc Ac trans Ci sp]
+26.5 +24.7 90 +38 +38 очень
душно
1009.6 1008.8
00 12.08 СВ 2 12 км мгла 9/3 600 м
[Cu hum Ac lent Ci fib]
+25.7 +23.3 87 +35 +35 очень
душно
1008.6 1007.8 +25.0
06 12.08 ЮЗ 3 16 км 9/4 600 м
[Cu hum Ac lent Ci fib]
+31.3 +25.0 69 +45 +51 опасность
перегрева
1008.3 1007.5
12 12.08 Ю 1 12 км мгла 9/1 750 м
[Sc Ac lent Ci sp]
+29.5 +25.3 78 +43 +43 опасность
перегрева
1007.7 1006.9 +31.8
18 12.08 СВ 2 12 км мгла 9/3 750 м
[Sc Ac lent Ci fib]
+27.1 +24.5 86 +38 +38 очень
душно
1008.9 1008.1
00 13.08 СВ 1 12 км мгла 9/3 600 м
[Sc Ac lent Ci sp]
+26.7 +23.7 84 +37 +37 очень
душно
1008.8 1008.0 +25.7
06 13.08 Ю 4 14 км мгла 9/4 660 м
[Cu med, cong Ac lent Ci sp]
+32.8 +24.5 62 +46 +51 опасность
перегрева
1008.3 1007.5
12 13.08 ЮВ 1 14 км мгла 9/1 660 м
[Cu hum Ac lent Ci sp]
+29.4 +25.2 78 +43 +43 опасность
перегрева
1008.0 1007.2 +33.0
18 13.08 СВ 2 12 км мгла 9/3 720 м
[Sc Ac lent Ci sp]
+27.0 +23.4 81 +37 +37 очень
душно
1009.1 1008.3
00 14.08 штиль 0 14 км мгла 9/3 600 м
[Cu med, cong Ac lent Ci sp]
+26.8 +24.9 89 +38 +39 очень
душно
1008.6 1007.8 +26.4
06 14.08 Ю 4 14 км мгла 9/3 660 м
[Cu med, cong Ac lent Ci sp]
+32.9 +22.8 55 +43 +49 опасность
перегрева
1008.3 1007.5
12 14.08 штиль 0 4000 м мгла 9/3 750 м
[Sc Ac trans Ci sp]
+29.9 +25.7 78 +44 +44 опасность
перегрева
1007.8 1007.0 +33.1
18 14.08 СВ 1 8000 м мгла 9/3 750 м
[Sc Ac lent Ci sp]
+27.3 +22.7 76 +36 +36 очень
душно
1009.3 1008.5
00 15.08 СВ 1 9000 м мгла 9/1 660 м
[Cu hum Ac trans Ci sp]
+26.9 +24.6 87 +38 +38 очень
душно
1009.0 1008.2 +26.3

 

Местоположение метеостанции Langkawi (Малайзия): широта 6.33 долгота 99.73 высота над уровнем моря 7 м.

В архиве по умолчанию представлена погода в Langkawi за последнюю неделю. Архивные данные за месяц целиком и за предыдущие месяцы, начиная с января 2011 года, Вы можете получить, выбрав интересующий диапазон дат из раскрывающегося списка и нажав кнопку "Ввод!".


*Определитесь, кто Вы:
робот инопланетянин человек

Внимание! Время в таблицах - всемирное. Для получения местного времени необходимо прибавить поправку, которая в Langkawi равна 7 ч.

Смотрите также архив погоды в соседних городах и на ближайших метеорологических станциях:

Погода в Satun (Таиланд) (53 км)
Погода в Kho Hong Agromet (Таиланд) (53 км)
Погода в Alor Star (Малайзия) (75 км)
Погода в Sadao (Таиланд) (91 км)
Погода в Hat Yai (Таиланд) (101 км)
Погода в Butterworth Air Base (Малайзия) (120 км)
Погода в Penang (Малайзия) (129 км)
Погода в Trang (Таиланд) (133 км)
Погода в Songkhla (Таиланд) (137 км)
Погода в Phatthalung Agromet (Таиланд) (147 км)

Пояснения к столбцам:

Ветер - указаны скорость ветра в м/с - средняя за 10 мин, порывы в срок и между сроками (в фигурных скобках) и направление, откуда дует ветер: С - северный, СВ - северо-восточный, В - восточный, ЮВ - юго-восточный, Ю - южный, ЮЗ - юго-западный, З - западный, СЗ - северо-западный.
Видимость - горизонтальная дальность видимости в метрах или километрах. При видимости от 1 до 10 км при отсутствии осадков обычно наблюдается дымка, при ухудшении видимости до 1 км и менее - туман. В сухую погоду видимость может ухудшаться дымом, пылью или мглою.
Явления - указаны атмосферные явления, наблюдавшиеся в срок или в последний час перед сроком; фигурными скобками обозначены явления, наблюдавшиеся между сроками (за 1-3 часа до срока); квадратными скобками обозначены град или гололедные отложения с указанием их диаметра в мм.
Облачность - указаны через наклонную черту общая и нижняя облачность в баллах и высота нижней границы облаков в метрах; квадратными скобками обозначены формы облаков: Ci - перистые, Cs - перисто-слоистые, Cc - перисто-кучевые, Ac - высококучевые, As - высокослоистые, Sc - слоисто-кучевые, Ns - слоисто-дождевые, Cu - кучевые, Cb - кучево-дождевые. Подробнее классификацию облаков см. в Атласе облаков (PDF).
T - Температура воздуха - температура, измеренная на высоте 2 м над землей.
Td - Температура точки росы - температура, при понижении до которой содержащийся в воздухе водяной пар достигнет насыщения.
f - Относительная влажность воздуха - влажноcть воздуха, измеренная на высоте 2 м над землей.
Te - Эффективная температура - температура, которую ощущает одетый по сезону человек в тени. Характеристика душности погоды. При расчете учитывается влияние влажности воздуха и скорости ветра на теплоощущения человека.
Tes - Эффективная температура на солнце - температура, которую ощущает человек, с поправкой на солнечный нагрев. Характеристика знойности погоды. Зависит от высоты солнца над горизонтом, облачности и скорости ветра. Ночью, в пасмурную погоду, а также при ветре 12 м/с и более поправка равна нулю.
P - Атмосферное давление - приведенное к уровню моря атмосферное давление.
Po - Атмосферное давление - измеренное на уровне метеостанции атмосферное давление.
Tmin - Минимальная температура - минимум температуры воздуха на высоте 2 м над землей.
Tmax - Максимальная температура - максимум температуры воздуха на высоте 2 м над землей.
R - Количество осадков - Количество выпавших осадков за период времени, мм. При наведении курсора мыши на число - период времени, за который выпало указанное количество осадков.
R24 - Количество осадков - Количество выпавших осадков за 24 часа, мм.
S - Снежный покров - Высота снежного покрова, см. При наведении курсора мыши на число - состояние снежного покрова и степень покрытия местности в баллах.